EW2919 Weather Reports


time (UTC)temp
C
wind
direction
speed
KPH
gust
KPH
rain 1hr
cm
rain 24hr
cm
rain mn
cm
humidity
%
barometer
mb
20260504191520 26 198 1.6 6.4 0.00 0.00 0.00 35 1014.8
20260504190010 26 147 3.2 9.7 0.00 0.00 0.00 35 1015.0
20260504184512 26 324 1.6 9.7 0.00 0.00 0.00 37 1015.2
20260504183015 26 24 3.2 9.7 0.00 0.00 0.00 38 1015.2
20260504181518 26 284 1.6 8.0 0.00 0.00 0.00 34 1015.3
20260504174508 25 315 1.6 8.0 0.00 0.00 0.00 38 1015.5
20260504173013 24 312 6.4 12.9 0.00 0.00 0.00 35 1015.6
20260504171533 23 288 0.0 14.5 0.00 0.00 0.00 37 1015.7
20260504081527 5 197 0.0 0.0 0.00 0.00 0.00 83 1017.2
20260504050019 7 197 0.0 3.2 0.00 0.00 0.00 69 1017.3
20260504044526 7 197 0.0 3.2 0.00 0.00 0.00 73 1017.2
20260504043006 7 163 0.0 3.2 0.00 0.00 0.00 72 1016.8
20260504041506 7 163 0.0 0.0 0.00 0.00 0.00 72 1017.0
20260504040007 7 163 0.0 0.0 0.00 0.00 0.00 72 1017.1
20260504034508 7 163 0.0 0.0 0.00 0.00 0.00 71 1017.1
20260504033004 7 163 0.0 0.0 0.00 0.00 0.00 70 1017.1
20260504031504 7 163 0.0 0.0 0.00 0.00 0.00 68 1017.1
20260504030007 7 163 0.0 0.0 0.00 0.00 0.00 65 1017.3
20260504024509 8 163 0.0 0.0 0.00 0.00 0.00 64 1017.2
20260504023009 8 163 0.0 0.0 0.00 0.00 0.00 63 1017.1
20260504021504 8 163 0.0 0.0 0.00 0.00 0.00 62 1016.9
20260504020017 8 163 0.0 0.0 0.00 0.00 0.00 62 1016.7
20260504014513 9 163 0.0 0.0 0.00 0.00 0.00 60 1016.6
20260504013012 10 163 0.0 0.0 0.00 0.00 0.00 58 1016.5
20260504011507 11 163 0.0 0.0 0.00 0.00 0.00 55 1016.5
20260504010007 11 163 0.0 0.0 0.00 0.00 0.00 52 1016.5
20260504004512 12 163 0.0 0.0 0.00 0.00 0.00 49 1016.4
20260504003009 13 163 0.0 0.0 0.00 0.00 0.00 44 1016.2
20260504001508 13 163 0.0 0.0 0.00 0.00 0.00 42 1016.1
20260504000007 15 163 0.0 0.0 0.00 0.00 0.00 40 1016.0
20260503234514 15 194 0.0 1.6 0.00 0.00 0.00 37 1016.0
20260503233008 16 319 0.0 3.2 0.00 0.00 0.00 36 1016.1
20260503231508 16 192 0.0 3.2 0.00 0.00 0.00 35 1015.9
20260503230008 17 196 1.6 4.8 0.00 0.00 0.00 30 1016.0
20260503224511 17 148 0.0 3.2 0.00 0.00 0.00 29 1016.1
20260503223009 18 138 1.6 6.4 0.00 0.00 0.00 27 1016.2
20260503221512 19 171 0.0 4.8 0.00 0.00 0.00 29 1016.3
20260503220029 19 203 0.0 4.8 0.00 0.00 0.00 27 1016.5
20260503214504 19 190 1.6 6.4 0.00 0.00 0.00 27 1016.7
20260503213011 20 253 0.0 8.0 0.00 0.00 0.00 26 1016.7
20260503211511 20 51 0.0 6.4 0.00 0.00 0.00 27 1016.7
20260503210012 19 284 1.6 4.8 0.00 0.00 0.00 29 1016.8
20260503204504 19 209 3.2 11.3 0.00 0.00 0.00 26 1016.8
20260503203020 19 299 1.6 6.4 0.00 0.00 0.00 26 1017.1
20260503201515 20 299 1.6 4.8 0.00 0.00 0.00 26 1017.2
20260503200012 19 248 1.6 11.3 0.00 0.00 0.00 27 1017.4
20260503194512 18 110 1.6 11.3 0.00 0.00 0.00 27 1017.6